Regional Weather Roundup
Issued by NWS Kansas City/Pleasant Hill, MO

Home | Current Version | Previous Version | Graphics & Text | Print | Product List | Glossary Off
Versions: 1 2 3 4 5 6 7 8 9 10 11 12 13 14 15 16 17 18 19 20 21 22 23 24 25 26 27 28 29 30 31 32 33 34 35 36 37 38 39 40 41 42 43 44 45 46 47 48 49 50

000
ASUS43 KEAX 221110
RWREAX

WEATHER ROUNDUP FOR EASTERN KANSAS AND NORTHWEST MISSOURI
NATIONAL WEATHER SERVICE KANSAS CITY/PLEASANT HILL MO
600 AM CDT THU JUN 22 2017

KSZ040-057-103>105-MOZ028-029-037-043-221200-
...KANSAS CITY METROPOLITAN AREA...

CITY           SKY/WX    TMP DP  RH WIND       PRES   REMARKS
K.C. INTL      CLOUDY    69  64  84 S10       29.80F
K.C. DOWNTOWN  MOCLDY    73  65  75 S12       29.80S
LEES SUMMIT    CLEAR     71  66  84 S6        29.83S
OLATHE - IXD   CLOUDY    67  63  87 SE6       29.82S
OLATHE - OJC   MOCLDY    67  65  93 CALM      29.82S
LAWRENCE       CLOUDY    67  66  97 SE8       29.79F

$$

MOZ001>008-011>017-020>025-030>033-038>040-044>046-053-054-221200-
...NORTHERN AND CENTRAL MISSOURI...

CITY           SKY/WX    TMP DP  RH WIND       PRES   REMARKS
ST. JOSEPH     CLOUDY    72  66  81 S9        29.77F
MOSBY          PTSUNNY   70  63  78 S3        29.81F
WARRENSBURG    PTCLDY    66  63  88 CALM      29.83S
WHITEMAN AFB   PTCLDY    69  69 100 S7        29.82S
CLINTON        CLEAR     68  66  94 CALM      29.84F
SEDALIA        CLEAR     70  68  93 S5        29.85F
WARSAW         NOT AVBL
CHILLICOTHE      N/A     71  65  81 S3        29.83S
KIRKSVILLE     CLOUDY    71  65  81 SW5       29.86R

$$

MOZ041-047>049-056>058-063>065-088>090-097-221200-
...EASTERN AND SOUTHERN MISSOURI...

CITY           SKY/WX    TMP DP  RH WIND       PRES   REMARKS
ST. LOUIS INTL MOCLDY    76  68  76 S9        29.89F
SPIRIT OF STL  CLEAR     73  69  87 CALM      29.88S
COLUMBIA       MOCLDY    69  68  96 SE7       29.86S
JEFFERSON CITY MOCLDY    71  67  87 E6        29.85F
ROLLA          PTCLDY    68  67  96 SE10      29.87F
OSAGE BEACH    CLOUDY    68  66  93 CALM      29.86F
SPRINGFIELD    CLOUDY    72  69  90 SE9       29.85F
BRANSON        CLOUDY    70  70 100 CALM      29.88R FOG
JOPLIN         MOCLDY    72  68  87 SE3       29.83F
WEST PLAINS    CLOUDY    71  70  96 E6        29.90F FOG

$$

IAZ060-094-KSZ022-034>040-054-083-096-NEZ052-066-093-221200-
...KANSAS...SOUTHEAST NEBRASKA AND IOWA...

CITY           SKY/WX    TMP DP  RH WIND       PRES   REMARKS
TOPEKA         CLOUDY    70  66  87 S6        29.78F
MANHATTAN      CLOUDY    74  63  68 W7        29.76R
EMPORIA        CLEAR     65  63  93 S3        29.80S
CHANUTE        CLEAR     67  64  90 SE8       29.80F
WICHITA        MOCLDY    68  64  87 SE8       29.77F
OMAHA          PTCLDY    77  60  55 S15       29.67R
LINCOLN        CLOUDY    75  61  61 S7        29.68F
FALLS CITY     CLOUDY    74  61  63 S15       29.73S
LAMONI         CLEAR     70  62  76 S10       29.78F
DES MOINES     MOCLDY    75  61  61 S15       29.71S

$$




USA.gov is the U.S. government's official web portal to all federal, state and local government web resources and services.